Air Resources Laboratory banner image
Air Resources Laboratory web site National Oceanic and Atmospheric Administration (NOAA)

co roundup


Office: BOU

ASUS45 KBOU 141310
RWRCO

WEATHER ROUNDUP FOR COLORADO
NATIONAL WEATHER SERVICE DENVER/BOULDER CO
600 AM MST THU DEC 14 2017

NOTE: "FAIR" INDICATES FEW OR NO CLOUDS BELOW 12000 FEET WITH NO
SIGNIFICANT WEATHER AND/OR OBSTRUCTIONS TO VISIBILITY.

COZ001>005-013-030-031-141400-
...NORTHWEST COLORADO...

CITY           SKY/WX    TMP DP  RH WIND       PRES   REMARKS
CRAIG          FAIR      24  16  71 CALM      30.25R
HAYDEN         CLOUDY    21  19  92 CALM      30.23R
MEEKER         MOCLDY    27  21  78 N10G18    30.23R WCI  17
RABBIT EARS PA FAIR      12  10  92 CALM      30.13R
STEAMBOAT SPGS CLOUDY    25  24  99 CALM      30.19R
WALDEN         CLOUDY    19  16  86 N10       30.19R WCI   8
$$

COZ006>008-011-141400-
...WEST CENTRAL VALLEYS...

CITY           SKY/WX    TMP DP  RH WIND       PRES   REMARKS
GRAND JUNCTION FAIR      35  25  66 N8        30.16R WCI  29
MONTROSE       CLOUDY    33  29  85 SE3       30.14R
EAGLE          CLOUDY    26  23  88 W3        30.18R FOG
RIFLE          FAIR      29  25  85 CALM      30.17R
DELTA          CLOUDY    37  28  72 NE3       30.15R
NUCLA          CLOUDY    34  23  64 NW3       30.12R
$$

COZ017>023-064>068-141400-
...SOUTHWEST COLORADO...

CITY           SKY/WX    TMP DP  RH WIND       PRES   REMARKS
DURANGO        FAIR      24   8  50 SE3       29.98R
CORTEZ         MOCLDY    37  26  64 N9        30.01R
PAGOSA SPRINGS CLOUDY    30   6  36 NE7       30.01R WCI  24
TELLURIDE      MOCLDY    26  15  63 CALM      30.06R
WOLF CREEK PAS LGT SNOW  16  16 100 NW6       30.08R VSB 1   WCI   7
$$

COZ009-010-012-014-032>034-037-058>063-141400-
...CENTRAL COLORADO...

CITY           SKY/WX    TMP DP  RH WIND       PRES   REMARKS
ASPEN          LGT SNOW  26  25  96 NW5       30.11R FOG     WCI  20
BUENA VISTA    LGT SNOW  25  23  90 CALM      30.15R
COPPER MTN     NOT AVBL
BERTHOUD PASS  LGT SNOW   9  -4  56 W13G18    30.07S WCI  -7
COTTONWOOD PAS LGT SNOW  27  23  86 CALM      30.12R VSB 3/4
GUNNISON       LGT SNOW  27  23  85 SE5       30.08R FOG     WCI  22
KREMMLING      FAIR      30  21  69 N13       30.17R WCI  20
LEADVILLE      LGT SNOW  18  16  92 S6        30.09R VSB 1   WCI  10
MONARCH PASS   CLOUDY    12  10  92 NE30      30.12R WCI  -9
SALIDA         CLOUDY    28  26  94 E5        30.22R WCI  22
SUNLIGHT       CLOUDY    18  16  93 NE6       30.15R FOG     WCI   9
WILKERSON PASS CLOUDY    12  10  92 NE6       30.12R WCI   3
$$

COZ069>075-141400-
...SAN LUIS VALLEY/SANGRE DE CRISTO MOUNTAINS...

CITY           SKY/WX    TMP DP  RH WIND       PRES   REMARKS
ALAMOSA        CLOUDY    30  16  56 W5        30.03R WCI  25
DEL NORTE      CLOUDY    29  24  84 E6        30.05R WCI  22
LA VETA PASS   SNOW      14  12  92 NE23G31     N/A  VSB 1/2 WCI  -5
SAGUACHE       LGT SNOW  28  28 100 CALM      30.05R
$$

COZ035-036-038>040-141400-
...NORTHERN COLORADO FRONT RANGE...

CITY           SKY/WX    TMP DP  RH WIND       PRES   REMARKS
DENVER INTL AP CLOUDY    28  25  88 SW7       30.19S WCI  21
DMNS CITY PARK NOT AVBL
AURORA         MOCLDY    27  27  99 SW6       30.20S WCI  21
FRONT RANGE AP CLOUDY    30  28  94 W6        30.20S WCI  24
ERIE MUNI ARPT FAIR      29  28  95 S5        30.26S WCI  24
BOULDER MUN AP FAIR      30  30 100 CALM      30.20S
CENTENNIAL     LGT SNOW  27  26  96 W6        30.20S FOG     WCI  20
BROOMFIELD     FLURRIES  30  28  93 SW5       30.20S WCI  25
FORT COLLINS   CLOUDY    28  26  92 S6        30.20R WCI  22
LONGMONT       FAIR      31  29  92 S3        30.23R
$$

COZ041-046-047-076>085-087-088-141400-
...PIKES PEAK/PALMER DIVIDE AND SOUTHERN FOOTHILLS...

CITY           SKY/WX    TMP DP  RH WIND       PRES   REMARKS
COLO. SPRINGS  CLOUDY    29  21  72 N13       30.19R WCI  19
A. F. ACADEMY  FLURRIES  26  21  82 NW10      30.17R WCI  16
SCHRIEVER AFB  MOCLDY    27  21  79 N9        30.19R WCI  18
CHEYENNE MTN   LGT SNOW  25  22  89 N16G22    30.10S WCI  12
ELLICOTT         N/A    N/A N/A N/A N13       30.17R
FALCON         CLOUDY    25  20  82 N12       30.17R WCI  14
FORT CARSON    FAIR      29  23  77 N12       30.18R WCI  20
LIMON          CLOUDY    27  25  92 NW16      30.17S WCI  15
MONUMENT HILL  LGT SNOW  23  21  93 N9        30.19R WCI  13
CANON CITY     CLOUDY    32  32 100 S6        30.20R WCI  26
WALSENBURG     CLOUDY    28  27  93 CALM      30.20R
TRINIDAD       CLOUDY    31  19  61 NE12G21   30.19R WCI  22
$$

COZ042>045-048>051-090-091-141400-
...NORTHEAST COLORADO...

CITY           SKY/WX    TMP DP  RH WIND       PRES   REMARKS
GREELEY ARPT   CLOUDY    33  22  63 W7        30.21R WCI  27
AKRON          FLURRIES  30  27  88 W13       30.15S WCI  20
BURLINGTON     MOCLDY    32  28  85 NW15      30.15S WCI  22
WRAY           MOCLDY    34  30  86 W12       30.15S WCI  25
YUMA           FAIR      30  28  93 W12       30.15S WCI  21
STERLING       CLOUDY    36  27  69 NW10      30.16R
HOLYOKE        FAIR      37  30  75 NW10      30.14R
FORT MORGAN    CLOUDY    30  27  90 W7        30.20R WCI  23
$$

COZ086-089-092>099-141400-
...SOUTHEAST COLORADO...

CITY           SKY/WX    TMP DP  RH WIND       PRES   REMARKS
PUEBLO         FLURRIES  32  31  96 S3        30.21R
LA JUNTA       LGT SNOW  32  32 100 NW5       30.21R FOG     WCI  27
LAMAR          LGT SNOW  32  30  92 W3        30.19R FOG
SPRINGFIELD      N/A     30  26  85 N16       30.17R WCI  19
$$